Regional Weather Roundup
Issued by NWS Grand Forks, ND

Home | Current Version | Previous Version | Graphics & Text | Print | Product List | Glossary On
Versions: 1 2 3 4 5 6 7 8 9 10 11 12 13 14 15 16 17 18 19 20 21 22 23 24 25 26 27 28 29 30 31 32 33 34 35 36 37 38 39 40 41 42 43 44 45 46 47 48 49 50
000
ASUS43 KFGF 181210
RWRFGF
PRAIRIE TO PINES  WEATHER ROUNDUP
NATIONAL WEATHER SERVICE EASTERN NORTH DAKOTA/GRAND FORKS ND
700 AM CDT THU SEP 18 2014

 **SATELLITE DATA USED TO AUGMENT SKY COVER AT AUTOMATED STATIONS**
 *****  WEATHER ACROSS EASTERN NORTH DAKOTA  *****

CITY           SKY/WX    TMP DP  RH WIND       PRES   REMARKS
GRAND FORKS    PTCLDY    36  34  92 CALM      29.99F
6HR MIN TEMP:  36; 6HR MAX TEMP:  46;

GRAND FRKS AFB FOG       34  34  99 CALM      29.99F VSB 1/2
GRAND FRKS NWS   N/A     41 N/A N/A SE3         N/A
DEVILS LAKE    CLEAR     46  39  76 SE9       29.94F
6HR MIN TEMP:  43; 6HR MAX TEMP:  46;

FARGO          CLEAR     44  41  89 E6        29.99F FOG
WAHPETON ARPT  CLOUDY    50  46  87 SE13      30.00S
$$

 ***** WEATHER ACROSS CENTRAL AND WESTERN NORTH DAKOTA  *****

CITY           SKY/WX    TMP DP  RH WIND       PRES   REMARKS
BISMARCK       CLEAR     47  46  97 NE7       29.91F
6HR MIN TEMP:  46; 6HR MAX TEMP:  50;

MINOT          CLEAR     45  43  93 SE5       29.87F
6HR MIN TEMP:  44; 6HR MAX TEMP:  49;

JAMESTOWN      MOCLDY    39  38  96 CALM      29.97S FOG
6HR MIN TEMP:  39; 6HR MAX TEMP:  48;

MINOT AFB      CLEAR     44  44 100 SE9       29.86F
GARRISON         N/A     51  49  92 SE7       29.88F
WILLISTON      CLEAR     56  47  71 SE3       29.78F
6HR MIN TEMP:  54; 6HR MAX TEMP:  61;

DICKINSON      CLEAR     51  46  83 S16       29.82F
6HR MIN TEMP:  50; 6HR MAX TEMP:  55;

HETTINGER      CLEAR     49  45  86 SE5       29.87F
6HR MIN TEMP:  49; 6HR MAX TEMP:  54;

$$

 *****  OTHER AIRPORT OBSERVATIONS IN OUR AREA  *****

CITY           SKY/WX    TMP DP  RH WIND       PRES   REMARKS
WALHALLA         N/A     32  32 100 CALM      29.99F
GRAFTON AIRPOR FAIR      36  36 100 CALM      30.00S
VALLEY CITY AR FAIR      43  43 100 SE6       29.98S
CANDO          FAIR      37  37 100 SE8       29.95F FOG
CAVALIER APRT  FAIR      36  34  93 CALM      29.99F FOG
GWINNER        CLOUDY    43  43 100 N5        29.99S VSB 1/4
ROLLA          FOG       39  39 100 S7        29.95F VSB<1/4
 ***** THE ABOVE OBSERVATIONS ARE NON NWS ARE NOT QUALITY
       CONTROLLED AND MAY MIS-REPORT RAIN FOR SNOW...
$$

  *****  WEATHER ACROSS NORTHERN MINNESOTA  *****

CITY           SKY/WX    TMP DP  RH WIND       PRES   REMARKS
FLAG ISLAND    CLOUDY    46  45  93 SE12      30.04F
WARROAD        FOG       43  39  87 SE6       30.05F VSB 1/2
ROSEAU         HAZE      45  39  81 SE5       30.04S VSB 1/4
HALLOCK        CLEAR     37  36  93 E5        30.00F
THF RVR FALLS  CLOUDY    48  46  93 SE10      30.02S VSB 1/2
6HR MIN TEMP:  43; 6HR MAX TEMP:  48;

BAUDETTE       FOG       42  42 100 SE7       30.07S VSB 3/4
6HR MIN TEMP:  35; 6HR MAX TEMP:  42;

WASKISH        CLOUDY    45  43  93 CALM      30.07S
CROOKSTON      FOG       45  45 100 SE8       30.01F VSB 1/2
STEPHEN NDAWN    N/A     37  37 100 SE3         N/A
GREENBUSH NDAW   N/A     43  43 100 SE7         N/A
$$
  *****  WEATHER ACROSS CENTRAL AND WEST MINNESOTA  *****

CITY           SKY/WX    TMP DP  RH WIND       PRES   REMARKS
FOSSTON        CLOUDY    46  45  93 SE8       30.04S FOG
BEMIDJI        CLOUDY    43  41  92 SE12      30.07S
PARK RAPIDS    FOG       45  45 100 SE7       30.07S VSB 3/4
6HR MIN TEMP:  45; 6HR MAX TEMP:  51;

ELBOW LAKE     CLOUDY    49  49  99 E13       30.02S FOG
6HR MIN TEMP:  48; 6HR MAX TEMP:  56;

WADENA         FOG       46  45  93 E8        30.06S VSB 1/2
DETROIT LAKES  FOG       46  46 100 SE13      30.05S VSB 1
MOORHEAD       CLEAR     50  50 100 SE6       30.00S
FERGUS FALLS   CLOUDY    50  48  93 E12       30.02S FOG
MORRIS MN      FOG       50  48  93 E10       30.01F VSB 1/2
STAPLES        CLOUDY    46  45  93 SE5       30.08S
$$
  *****  WEATHER ELSEWHERE ACROSS MINNESOTA  *****

CITY           SKY/WX    TMP DP  RH WIND       PRES   REMARKS
DULUTH         MOCLDY    42  36  79 E12       30.13S
6HR MIN TEMP:  42; 6HR MAX TEMP:  45;

INTRNTL FALLS  CLOUDY    42  41  96 SE6       30.10F
6HR MIN TEMP:  35; 6HR MAX TEMP:  42;

ELY            MOCLDY    37  34  87 CALM      30.15S
CLOQUET        MOCLDY    41  37  87 E6        30.13R
WHEATON        FOG       48  46  93 E9        30.02S VSB 3/4
BRAINERD       CLOUDY    41  38  89 NE6       30.10S
6HR MIN TEMP:  40; 6HR MAX TEMP:  47;

HIBBING        CLOUDY    42  37  82 SE7       30.12F
6HR MIN TEMP:  42; 6HR MAX TEMP:  44;

ALEXANDRIA     FOG       48  47  96 E10       30.06S VSB 1/2
6HR MIN TEMP:  47; 6HR MAX TEMP:  55;

SAINT CLOUD    CLOUDY    47  44  90 E3        30.09R
6HR MIN TEMP:  47; 6HR MAX TEMP:  51;

MINNEAPOLIS    CLEAR     48  46  93 NE6       30.07S
6HR MIN TEMP:  48; 6HR MAX TEMP:  56;

$$

  *****  WEATHER ACROSS SOUTH DAKOTA  *****

CITY           SKY/WX    TMP DP  RH WIND       PRES   REMARKS
SIOUX FALLS    PTCLDY    57  54  89 SE7       29.99R
6HR MIN TEMP:  52; 6HR MAX TEMP:  60;

BROOKINGS      NOT AVBL
WATERTOWN      CLEAR     54  50  86 SE7       29.98S
6HR MIN TEMP:  46; 6HR MAX TEMP:  57;

HURON          CLEAR     52  50  93 SE3       29.94F
6HR MIN TEMP:  51; 6HR MAX TEMP:  59;

SISSETON         N/A     45  45 100 S5        29.99R
ABERDEEN       CLEAR     43  43 100 CALM      29.96S
6HR MIN TEMP:  43; 6HR MAX TEMP:  49;

MITCHELL       PTCLDY    50  50 100 E5        29.95S FOG
PIERRE         TSTM      56  53  90 SE13      29.88F
6HR MIN TEMP:  50; 6HR MAX TEMP:  56; 6HR PCP:  0.03;

MOBRIDGE       CLEAR     51  50  96 E8        29.89F
RAPID CITY     CLEAR     49  48  97 S3        29.87F FOG
6HR MIN TEMP:  49; 6HR MAX TEMP:  59;

$$

  *****  SOME WEATHER IN NEARBY STATES *****

CITY           SKY/WX    TMP DP  RH WIND       PRES   REMARKS
GLASGOW MT     PTCLDY    53  48  83 E13       29.67F
6HR MIN TEMP:  53; 6HR MAX TEMP:  59;

GREAT FALLS MT MOCLDY    63  42  46 S13       29.72S
6HR MIN TEMP:  63; 6HR MAX TEMP:  69;

CHEYENNE WY    CLEAR     53  39  59 W14       30.08S
6HR MIN TEMP:  52; 6HR MAX TEMP:  56;

SCOTTSBLUFF NE FOG       54  54 100 SW3       29.95S VSB 1/4
6HR MIN TEMP:  52; 6HR MAX TEMP:  59;

OMAHA NE       CLOUDY    60  57  89 SE10      30.01R FOG
6HR MIN TEMP:  59; 6HR MAX TEMP:  65;

DES MOINES IA  PTCLDY    57  54  89 CALM      30.05R
6HR MIN TEMP:  57; 6HR MAX TEMP:  62;

DAVENPORT IA   CLEAR     47  45  93 SE3       30.09R FOG
6HR MIN TEMP:  45; 6HR MAX TEMP:  50;

CHICAGO IL     MOCLDY    54  51  90 N9        30.10R FOG
EAU CLAIRE WI  MOCLDY    48  45  89 SE12      30.10R
6HR MIN TEMP:  46; 6HR MAX TEMP:  51;

LA CROSSE WI   MOCLDY    51  49  92 E3        30.09R
6HR MIN TEMP:  48; 6HR MAX TEMP:  53;

$$

  *****  SOME NATIONAL WEATHER *****

CITY           SKY/WX    TMP DP  RH WIND       PRES   REMARKS
LA GUARDIA NY  MOSUNNY   62  48  60 N3        30.00R
6HR MIN TEMP:  59; 6HR MAX TEMP:  64;

RALEIGH NC     MOSUNNY   63  59  87 NE3       30.00R
6HR MIN TEMP:  59; 6HR MAX TEMP:  65;

ATLANTA GA     MOCLDY    66  61  84 NE5       29.97S
6HR MIN TEMP:  63; 6HR MAX TEMP:  68;

NEW ORLEANS LA PTCLDY    76  74  93 NW3       29.92R
6HR MIN TEMP:  75; 6HR MAX TEMP:  76;

OKLAHOMA CITY  PTCLDY    68  64  87 SE5       29.92S
6HR MIN TEMP:  68; 6HR MAX TEMP:  74;

ALBUQUERQUE NM PTCLDY    59  53  80 N7        30.08S
6HR MIN TEMP:  59; 6HR MAX TEMP:  66;

SALT LAKE CITY PTCLDY    69  46  43 SE10      29.90S
6HR MIN TEMP:  69; 6HR MAX TEMP:  78;

LOS ANGELES CA CLEAR     68  59  73 CALM      29.80S
6HR MIN TEMP:  67; 6HR MAX TEMP:  70;



USA.gov is the U.S. government's official web portal to all federal, state and local government web resources and services.